Tracking 19720 objects as of 26-Jun-2019
HD Live streaming from Space Station
objects crossing your sky now

FENGYUN 1C DEB

Track FENGYUN 1C DEB now!
10-day predictions


NORAD ID: 30338
Int'l Code: 1999-025AAZ
Perigee: 565.3 km
Apogee: 1,060.8 km
Inclination: 98.7 °
Period: 101.0 minutes
Semi major axis: 7184 km
RCS: 0.0507 m2 (small)
Launch date: May 10, 1999
Source: People's Republic of China (PRC)
Launch site: Taiyaun Space Center, China (TSC)

Note: This is SATELLITE DEBRIS
aabbcc
Your satellite tracking list
Your tracking list is empty




NASA's NSSDC Master Catalog

Two Line Element Set (TLE):
1 30338U 99025AAZ 19176.82294632  .00000167  00000-0  51627-4 0  9991
2 30338  98.7403 232.3099 0344886 327.0482  94.7132 14.25759043643680
Source of the keplerian elements: AFSPC